Regional Weather Roundup
Issued by NWS

Home | Current Version | Previous Version | Graphics & Text | Print | Product List | Glossary On
Versions: 1 2 3 4 5 6 7 8 9 10 11 12 13 14 15 16 17 18 19 20 21 22 23 24 25 26 27 28 29 30 31 32 33 34 35 36 37 38 39 40 41 42 43 44 45 46 47 48 49 50
000
ASUS43 KTOP 212059
RWRKS

WEATHER ROUNDUP FOR KANSAS
NATIONAL WEATHER SERVICE GOODLAND KS
300 PM CST TUE NOV 21 2017

NOTE:  "FAIR" INDICATES FEW OR NO CLOUDS BELOW 12,000 FEET WITH NO
SIGNIFICANT WEATHER AND/OR OBSTRUCTIONS TO VISIBILITY.

KSZ001>006-013>018-027>032-041>047-212200-
NORTHWEST KANSAS

CITY           SKY/WX    TMP DP  RH WIND       PRES   REMARKS
GOODLAND       SUNNY     48  25  40 N16       30.30R
HAYS           SUNNY     48  21  34 N29       30.29R
HILL CITY      SUNNY     49  22  34 N20       30.32R
RUSSELL        SUNNY     48  24  39 N22       30.28R
$$

KSZ061>065-074>080-084>089-212200-
SOUTHWEST KANSAS

CITY           SKY/WX    TMP DP  RH WIND       PRES   REMARKS
DODGE CITY     SUNNY     52  25  35 N21G33    30.26R
GARDEN CITY    SUNNY     52  26  36 N20G33    30.27R
GREAT BEND     SUNNY     49  24  37 N26G32    30.27R
LIBERAL        SUNNY     53  27  36 N23       30.26R
$$

KSZ066>073-081>083-090>101-212200-
SOUTHEAST KANSAS

CITY           SKY/WX    TMP DP  RH WIND       PRES   REMARKS
CHANUTE        SUNNY     54  28  36 N14G24    30.16R
COFFEYVILLE    SUNNY     59  35  40 N20G30    30.12R
HUTCHINSON     SUNNY     50  25  37 N21G31    30.23R
MEDICINE LODGE   N/A     54  26  34 N24G37    30.20R
NEWTON         SUNNY     48  12  23 N26G39    30.23R
PARSONS        SUNNY     57  31  37 N16G26    30.14R
WICHITA INTL   SUNNY     52  26  36 N24G35    30.20R
WICHITA JABRA  SUNNY     51  26  37 N24G32    30.20R
WICHITA MCCONL SUNNY     52  24  33 N26G33    30.19R
WINFIELD       SUNNY     56  29  35 N25G32    30.17R
$$

KSZ007>012-019>026-033>040-048>060-102>105-212200-
NORTHEAST KANSAS

CITY           SKY/WX    TMP DP  RH WIND       PRES   REMARKS
CONCORDIA      SUNNY     42   6  22 N17G30    30.30R
EMPORIA        SUNNY     50  14  23 N24G31    30.20R
LAWRENCE       SUNNY     47  10  22 NW23G30   30.20R
MANHATTAN      SUNNY     46   8  21 N13G20    30.27R
OLATHE IND     SUNNY     48  10  21 N21G31    30.18R
OLATHE EXE     SUNNY     47  10  22 N18G25    30.17R
SALINA         SUNNY     49  13  23 N26G38    30.27R
TOPEKA BILLARD SUNNY     46  10  23 NW22G30   30.23R
TOPEKA FORBES  SUNNY     48   9  20 N20G30    30.21R
$$



USA.gov is the U.S. government's official web portal to all federal, state and local government web resources and services.